This demonstration page uses our WeatherBlox Daily Observations layout. Learn more.

Left ArrowRight Arrow

41.55636, -103.73856

Hourly Observations for May 16, 2020

Temp ( °F °C ) Dew Point ( °F °C ) Humidity (%) Winds ( mph kmh ) Pressure ( in mb ) Visibility ( mi km ) Precip ( " mm )
12:58 am 00:58 Clear 54 12.4 48 9 80 80 W 8 13 29.88 1012 10 16 N/A
1:58 am 01:58 Mostly Cloudy 53 11.8 48 8.7 81 81 SW 8 13 29.89 1012 10 16 N/A
2:58 am 02:58 Mostly Cloudy 52 11.2 47 8.3 83 83 SSW 6 9 29.89 1012 10 16 N/A
3:58 am 03:58 Mostly Cloudy 53 11.4 47 8.5 83 83 S 13 20 29.90 1013 10 16 N/A
4:58 am 04:58 Cloudy 52 11.2 47 8.3 83 83 S 12 19 29.88 1012 10 16 N/A
5:58 am 05:58 Mostly Cloudy 51 10.5 47 8.1 85 85 SSW 10 17 29.88 1012 10 16 N/A
6:58 am 06:58 Mostly Cloudy 49 9.6 46 7.7 88 88 SSW 12 19 29.89 1012 10 16 N/A
8:58 am 08:58 Mostly Cloudy 48 8.8 44 6.7 87 87 W 10 17 29.91 1013 10 16 N/A
9:58 am 09:58 Mostly Cloudy with Mist and Fog 46 8 45 7.2 95 95 WNW 12 19 29.92 1013 6 10 N/A
10:58 am 10:58 Mostly Cloudy with Fog 47 8.5 46 8 97 97 NW 13 20 29.98 1015 3 5 N/A
11:58 am 11:58 Mostly Cloudy with Fog 49 9.2 48 8.7 97 97 NNW 12 19 30.00 1016 0 0 N/A
12:58 pm 12:58 Mostly Cloudy 49 9.5 47 8.4 93 93 NNW 14 22 30.01 1016 10 16 N/A
1:58 pm 13:58 Partly Cloudy 51 10.8 46 7.8 82 82 NNW 8 13 30.01 1016 10 16 N/A
2:58 pm 14:58 Partly Cloudy 54 12.4 46 7.8 74 74 N 14 22 30.01 1016 10 16 N/A
3:58 pm 15:58 Mostly Cloudy 55 12.8 43 5.9 63 63 NNW 22 35 30.02 1017 10 16 N/A
4:58 pm 16:58 Mostly Cloudy 56 13.1 42 5.7 61 61 NNW 20 31 30.03 1017 10 16 N/A
5:58 pm 17:58 Partly Cloudy 60 15.7 38 3.6 45 45 NNW 17 28 30.02 1017 10 16 N/A
6:58 pm 18:58 Mostly Cloudy 60 15.7 36 2 40 40 NW 22 35 30.00 1016 10 16 N/A
7:58 pm 19:58 Mostly Cloudy 61 15.9 35 1.5 38 38 NNW 23 37 30.00 1016 10 16 N/A
8:58 pm 20:58 Sunny 63 17.1 34 1.2 34 34 NNW 23 37 30.00 1016 10 16 N/A
9:58 pm 21:58 Mostly Sunny 64 17.7 34 1.1 33 33 NNW 23 37 29.99 1016 10 16 N/A
10:59 pm 22:59 Partly Cloudy 64 17.6 36 2.1 36 36 N 18 30 30.00 1016 10 16 N/A
11:58 pm 23:58 Mostly Sunny 63 17 34 1.1 34 34 N 17 28 30.01 1016 10 16 N/A

Powered by AerisWeather